RH
95 93 93 96 94 87 82 87 92 97 99 99 100 100 100 100 100 99 95 90 86 76 70 78 79 70 69 67 77 74 77 76 83 77 68 61 59 58 63 64 60 55 49
94 90 95 93 94 94 89 89 90 97 97 96 100 100 99 100 99 95 89 84 83 62 66 82 70 75 82 72 69 74 78 73 86 88 82 70 62 64 68 64 60 63 64
93 95 89 80 86 95 96 89 92 92 95 94 93 100 100 100 100 97 91 85 79 70 75 74 66 77 76 80 80 84 83 81 85 87 76 70 67 63 64 67 70 71 70
92 88 90 87 88 96 93 84 97 96 87 88 90 90 93 96 96 93 91 88 89 88 88 74 74 79 76 81 82 74 77 78 77 79 76 72 68 68 68 68 68 70 73
100 100 99 96 94 95 89 82 87 80 82 89 94 95 93 91 93 94 94 97 98 97 95 96 95 91 87 82 79 76 74 76 79 79 79 77 73 69 67 67 70 70 69
99 100 100 100 100 100 100 100 99 99 98 92 92 92 94 96 96 94 93 95 94 94 90 86 85 86 88 84 80 77 76 78 82 84 80 79 76 73 74 73 73 76 82
97 97 99 99 100 100 100 100 100 100 100 100 100 100 100 100 100 100 97 95 94 89 86 85 84 84 85 87 91 87 86 86 85 85 87 88 86 84 86 84 84 83 82
96 100 99 97 100 100 100 99 100 100 100 100 100 100 100 99 95 96 98 100 100 100 100 100 100 100 100 99 100 100 99 96 98 100 100 100 99 99 100 100 100 100 99
91 92 91 98 95 100 100 99 99 100 100 100 100 100 100 96 90 84 87 93 100 100 100 100 100 100 100 99 99 100 100 100 100 100 100 100 100 100 99 99 98 100 97
92 93 92 92 94 96 100 98 99 98 98 99 100 100 100 100 94 94 99 99 100 100 100 100 96 95 90 87 89 96 100 100 100 100 100 99 98 98 96 96 99 99 100
90 87 92 94 96 96 96 98 95 96 96 98 99 100 100 100 99 97 99 100 100 100 100 100 99 99 97 97 96 99 100 100 99 98 96 95 94 92 92 92 93 98 100
91 92 92 96 95 96 95 94 92 93 92 92 92 96 100 100 100 100 99 100 100 100 100 100 100 100 100 100 100 100 98 95 92 92 94 99 100 99 100 100 100 100 100
80 80 83 87 90 91 91 89 90 90 88 88 90 92 98 100 100 99 100 100 100 100 100 100 100 100 100 100 100 99 96 96 98 98 99 100 100 100 100 100 100 100 100
84 80 80 85 86 86 89 93 93 90 90 90 92 94 97 98 100 100 100 100 100 100 100 100 99 98 99 99 98 97 96 95 98 98 99 100 100 99 99 97 94 98 83
83 83 83 83 88 95 100 99 98 99 100 98 99 99 98 99 100 100 100 100 100 98 95 96 94 94 93 94 96 97 98 97 96 98 95 93 92 89 83 80 73 66 59
78 83 86 84 82 84 88 97 100 100 100 100 97 99 100 100 100 100 100 100 99 96 95 92 93 92 91 90 90 90 91 89 88 85 82 75 71 69 65 64 62 55 50
95 88 88 87 84 86 87 86 90 100 100 100 100 100 100 100 100 100 100 99 97 93 92 92 92 90 88 84 82 78 78 78 75 73 72 73 69 65 64 64 64 57 52
100 100 97 97 97 96 96 96 94 92 92 99 100 100 100 100 100 100 96 92 90 90 88 88 86 82 74 72 71 73 76 78 77 72 78 79 76 70 67 61 63 65 53
96 99 100 100 100 100 98 97 95 94 93 94 94 97 100 100 100 100 98 92 86 80 75 75 78 76 77 78 84 84 85 85 84 84 82 80 82 72 70 70 69 71 63
98 100 99 97 95 94 93 90 89 88 89 91 94 98 93 90 89 89 90 88 84 81 78 77 79 82 84 81 85 84 79 80 80 77 84 86 84 77 74 73 73 67 61
94 95 93 91 90 90 89 86 85 85 82 82 89 98 94 80 81 83 85 88 87 86 88 84 88 90 85 85 83 86 86 88 86 84 84 82 87 80 77 76 74 69 68
88 87 87 87 86 88 82 82 80 75 73 75 79 86 90 86 83 83 88 96 97 93 91 94 90 91 94 94 93 93 89 91 92 92 87 85 82 81 79 77 77 76 72
85 85 81 83 82 84 81 77 80 79 81 82 81 84 87 90 90 90 95 98 97 100 100 99 99 98 100 100 100 100 97 98 100 100 99 91 82 83 83 79 77 76 80
84 83 78 86 86 82 85 87 88 85 83 86 88 89 90 93 95 98 100 100 100 100 100 100 100 100 100 100 100 100 100 100 100 100 99 100 90 86 85 81 79 86 82
88 87 87 86 86 87 85 85 87 88 88 89 90 91 90 93 92 98 100 100 100 100 100 100 100 100 100 100 100 100 81 79 78 78 100 100 100 100 97 90 92 83 84
83 84 85 84 86 86 86 86 88 89 90 92 94 95 96 94 96 100 100 100 100 100 100 100 100 100 100 100 100 100 87 85 91 80 86 100 100 98 96 94 92 90 83
Wind_Speed
24 22 23 22 20 18 18 18 17 17 17 17 22 26 29 31 33 33 30 29 28 27 28 27 26 26 25 22 25 24 22 21 12 25 26 29 30 29 29 27 31 38 43
22 21 20 21 22 18 17 15 16 16 17 21 19 27 26 29 31 30 28 27 33 30 30 29 31 27 26 33 33 27 26 29 24 26 32 36 34 36 40 40 40 38 36
21 19 19 19 19 19 19 16 16 17 17 18 19 21 23 29 29 30 29 30 33 32 29 30 32 29 30 28 30 30 29 31 32 32 33 33 35 36 35 37 39 37 39
16 14 13 15 15 17 16 16 16 16 15 16 17 18 20 22 24 24 25 26 26 29 30 33 35 33 33 32 32 34 33 32 31 31 32 32 32 35 34 34 32 35 37
17 13 6 11 12 12 13 14 15 15 16 14 15 15 16 16 18 23 23 23 25 27 29 31 33 34 35 35 32 32 30 30 29 30 30 30 31 30 31 33 34 34 35
27 24 20 17 15 12 8 8 9 9 10 13 14 14 15 14 18 22 22 23 25 26 27 29 30 33 38 43 44 45 41 33 31 30 29 28 34 35 34 33 32 29 17
23 22 22 23 19 17 13 13 11 11 10 9 6 6 8 3 3 17 25 28 22 22 24 25 25 26 29 32 34 39 45 49 51 45 36 33 33 32 30 31 31 32 32
22 23 20 25 22 19 18 19 16 12 12 12 13 11 9 13 8 3 11 16 20 25 15 13 15 17 16 21 27 30 33 39 41 44 41 38 34 37 34 29 26 22 24
24 23 23 26 24 16 19 21 16 16 15 16 17 16 14 17 15 8 4 1 3 5 5 8 6 8 12 16 20 22 23 16 14 17 14 11 9 14 18 22 19 16 13
21 23 22 21 23 21 18 19 14 16 17 16 18 19 19 19 23 17 13 8 9 9 12 14 19 14 12 12 11 10 10 4 3 3 5 7 10 11 12 8 7 6 6
19 23 25 23 24 17 13 13 12 15 16 16 17 17 19 20 23 24 19 13 12 14 16 19 22 19 17 14 13 12 12 12 15 15 18 21 23 25 25 23 20 13 7
19 19 20 19 19 14 14 13 15 15 16 16 15 15 15 16 21 23 24 21 18 18 16 15 18 23 26 25 23 21 19 18 19 22 23 22 19 22 19 24 22 22 19
17 19 20 18 19 19 17 17 17 17 17 16 16 15 16 14 14 19 21 23 23 23 20 20 19 20 23 27 28 27 25 23 20 19 17 15 14 12 12 13 13 16 17
14 15 18 20 21 21 23 20 19 18 17 15 14 15 15 15 14 11 11 12 16 18 19 21 22 23 25 24 24 25 25 22 19 16 14 12 11 11 13 12 11 6 11
12 13 14 17 20 24 27 23 23 28 19 15 16 14 14 16 16 15 13 14 15 17 18 18 19 19 19 19 20 20 19 18 17 14 13 12 12 11 12 12 11 10 11
11 11 11 12 10 12 15 20 24 25 26 24 22 15 16 16 16 18 20 20 19 16 18 18 18 17 17 16 15 15 16 16 13 12 12 12 11 11 10 11 11 10 10
12 10 10 10 9 10 11 10 10 14 22 23 23 21 19 15 16 18 21 22 19 17 19 17 15 14 13 13 12 12 14 13 11 12 12 11 9 9 9 9 9 9 9
13 12 11 11 11 11 12 10 9 9 10 12 17 18 19 20 20 16 12 13 17 18 16 14 14 13 12 12 12 13 11 11 12 11 11 10 10 9 9 9 9 9 8
12 12 11 12 12 11 10 10 10 10 9 9 8 11 13 14 18 20 18 17 15 15 14 14 13 12 12 12 12 11 11 12 12 11 11 10 10 9 9 8 7 8 6
10 11 9 9 9 9 9 9 9 9 9 10 11 12 11 11 15 16 17 16 15 14 13 13 13 13 12 11 11 10 10 10 10 10 9 9 8 8 7 7 7 6 7
6 7 8 8 8 8 8 8 8 8 9 10 11 12 13 12 13 14 14 14 14 13 12 11 11 11 10 10 10 9 9 8 9 8 8 7 7 6 6 5 5 5 6
5 6 7 7 7 8 8 8 8 9 9 9 9 11 13 13 12 12 12 12 12 11 10 9 9 9 8 9 8 8 7 8 7 6 6 6 5 5 5 5 5 5 6
6 6 6 7 7 7 8 8 8 8 9 9 9 9 10 10 10 11 11 10 9 9 8 8 8 7 7 7 7 7 6 7 7 7 6 6 6 5 5 4 5 5 6
6 6 7 7 7 7 7 7 8 9 8 8 8 8 8 8 7 7 7 6 7 6 6 6 5 6 5 5 5 6 6 6 6 6 6 5 6 6 5 5 5 5 6
6 6 7 6 6 6 6 6 6 6 6 5 5 5 5 4 4 4 4 4 3 2 3 4 4 5 5 5 5 6 7 8 7 4 6 6 6 6 6 5 5 5 6
6 6 6 5 5 5 5 4 4 3 2 2 2 2 3 3 3 3 2 2 2 3 3 4 5 5 5 5 5 7 9 10 9 9 5 5 6 6 6 6 6 6 6
Wind_Direction
169 177 173 176 190 182 188 178 180 183 182 189 195 200 203 201 203 205 203 200 211 220 225 223 223 233 231 234 233 236 245 237 245 263 260 264 267 259 258 260 266 267 265
161 174 175 171 183 180 188 178 178 184 192 194 190 199 204 209 208 208 206 212 210 223 223 221 229 231 239 239 242 242 239 241 235 250 255 260 251 256 258 261 260 257 254
155 170 177 174 178 180 184 186 180 184 188 193 193 191 196 203 203 206 208 212 217 225 225 224 229 232 235 240 243 240 241 243 240 244 253 252 254 256 256 257 255 255 255
145 159 165 169 174 172 189 180 183 186 192 195 200 202 203 206 209 211 215 219 217 221 225 233 237 235 235 237 236 243 243 244 243 240 249 253 252 257 257 258 256 250 249
97 94 149 171 171 174 188 181 184 196 202 201 202 210 211 215 219 222 220 221 223 227 232 233 234 237 240 242 247 252 251 251 250 249 247 253 256 258 255 256 255 257 256
73 61 53 68 101 100 118 132 162 164 187 198 199 208 208 202 219 223 225 226 229 233 238 241 244 247 248 249 249 251 250 252 254 256 255 251 253 254 255 256 260 260 261
57 61 61 54 49 70 78 89 91 94 114 141 145 186 133 147 238 223 229 231 240 245 248 253 256 253 252 251 252 255 256 256 254 254 256 253 257 257 265 268 265 263 265
50 53 54 62 45 51 57 58 60 75 77 78 83 84 85 42 28 330 257 250 252 251 276 270 260 262 264 261 256 256 258 262 262 262 263 263 265 268 265 266 268 275 281
46 48 48 51 55 35 56 56 56 63 69 68 67 66 59 35 27 29 30 81 132 100 65 24 346 318 307 289 281 281 270 262 263 263 241 226 248 272 280 277 282 279 274
35 46 45 47 54 42 33 54 59 73 72 70 69 60 56 39 32 42 55 75 93 81 58 43 42 32 4 348 334 310 299 294 247 144 88 50 37 39 34 14 312 295 281
40 44 43 39 49 52 42 55 69 73 77 72 68 59 52 49 38 44 61 65 72 74 65 52 41 38 41 41 41 53 86 108 98 87 74 66 60 58 56 56 51 59 58
57 57 59 55 58 59 63 63 65 73 72 69 67 62 55 50 48 46 56 71 75 78 72 68 63 57 58 62 69 79 86 86 86 79 71 62 55 53 52 57 60 64 64
57 60 63 59 63 57 58 59 62 61 66 66 64 60 52 47 49 51 56 66 74 79 78 74 71 65 62 61 65 68 66 66 68 65 64 58 53 53 52 51 50 53 57
64 65 67 64 60 61 59 53 58 60 61 60 64 66 58 51 47 49 59 66 72 77 76 72 69 67 64 62 60 58 60 63 64 66 61 55 52 47 43 38 38 28 42
68 68 68 70 70 69 65 62 59 58 62 67 63 60 64 57 50 60 77 76 79 81 81 72 66 60 58 57 56 55 53 54 53 50 50 43 37 35 37 34 38 42 50
72 70 72 79 84 90 87 76 63 65 65 63 66 69 67 68 65 68 71 76 78 82 76 69 62 59 57 53 50 50 49 48 45 47 47 44 38 33 34 35 39 41 44
74 75 78 81 82 80 81 86 94 67 62 63 61 62 63 63 61 63 62 66 64 66 68 65 63 59 55 53 51 47 47 44 44 49 50 47 43 43 41 38 34 36 37
70 68 71 69 70 71 70 71 73 72 68 59 55 62 58 57 56 57 61 66 61 60 64 63 58 52 48 48 47 46 46 45 46 48 49 47 43 38 40 38 37 29 27
50 53 59 62 64 67 70 72 72 71 69 66 62 48 46 51 55 56 60 64 63 60 56 55 53 52 50 48 44 43 44 44 43 41 39 41 36 43 42 34 35 36 12
51 55 63 67 66 65 64 65 65 65 62 56 49 35 33 42 46 47 51 56 57 56 53 53 49 47 45 44 42 35 33 35 34 37 31 32 31 35 33 28 22 13 10
50 50 60 69 70 67 66 68 69 70 70 66 58 46 50 58 54 53 52 51 53 53 49 49 47 45 39 34 31 29 32 27 28 20 21 17 25 13 18 19 16 8 359
49 52 54 58 60 60 58 57 58 60 61 63 60 46 52 58 57 56 53 49 47 47 46 45 45 40 37 30 24 20 18 21 15 8 3 2 359 0 1 2 357 349 345
52 57 63 64 69 68 64 64 65 66 65 61 56 51 49 52 50 48 46 43 41 41 44 41 37 31 28 23 23 24 19 10 360 352 348 343 340 337 339 335 338 334 342
61 67 71 72 72 73 70 70 70 66 63 58 53 51 50 48 46 40 37 33 37 35 36 30 28 28 22 25 19 15 5 355 346 334 336 326 319 318 313 311 315 325 327
61 68 71 71 70 71 68 63 59 55 53 51 52 51 46 38 30 22 15 14 25 23 6 11 1 351 347 358 1 360 345 348 340 321 321 307 301 303 299 296 303 306 317
54 60 64 65 65 63 61 59 57 55 57 56 53 41 20 5 355 352 348 352 343 331 333 324 326 338 347 336 318 319 320 322 321 318 303 302 292 284 284 286 292 295 299